Simultaneous Nadir Overpasses (SNOs) Predictions

Prediction of SNOs between GOES-17 and METOP-B Satellite Orbit:

Table of predicted SNOs for the next 14.0 days since TLE Epoch: 6/25/2022
Index Date Time (GOES-17) GOES-17 Lat,Lon METOP-B Lat,Lon Distance(km) Time Diff (sec)
1 06/25/2022 06:51:41 -0.04,-137.20 -0.78,-140.62 388.92 80
2 06/26/2022 06:33:41 -0.05,-137.20 0.33,-135.62 180.40 80
3 06/27/2022 18:49:53 0.04,-137.20 0.71,-140.18 339.37 80
4 06/28/2022 18:31:53 0.04,-137.20 -0.40,-135.18 229.44 80
5 06/30/2022 06:48:14 -0.04,-137.19 -0.64,-139.78 295.71 80
6 07/01/2022 06:30:14 -0.04,-137.18 0.47,-134.78 272.77 80
7 07/02/2022 18:46:26 0.03,-137.17 0.51,-139.35 248.10 80
8 07/03/2022 18:28:27 0.03,-137.16 -0.60,-134.36 320.10 80
9 07/05/2022 06:44:47 -0.02,-137.15 -0.43,-138.95 205.77 80
10 07/06/2022 06:26:48 -0.03,-137.14 0.69,-133.96 362.17 80
11 07/07/2022 18:42:59 0.02,-137.12 0.35,-138.52 159.61 80
12 07/08/2022 18:25:00 0.03,-137.10 -0.76,-133.52 407.88 80
